Location: Unspecified
(42.3650°N, 71.1030°W)
Time: 14:30:33
(UTC+00:00)

JY1SAT - Visible Passes

Search period start: 12 July 2024 00:00
Search period end: 22 July 2024 00:00
Orbit: 536 x 549 km, 97.5° (Epoch: 11 July)

Date Brightness Start Highest point End Pass type
(mag) Time Alt. Az. Time Alt. Az. Time Alt. Az.
12 Jul ? 01:28:15 13° SSE 01:31:39 64° ENE 01:35:35 10° N visible
13 Jul ? 01:21:38 12° SSE 01:25:06 53° ENE 01:28:58 10° N visible
13 Jul ? 02:58:34 10° WSW 03:00:01 12° W 03:01:27 10° WNW visible
14 Jul ? 01:15:01 11° SE 01:18:33 44° ENE 01:22:19 10° N visible
14 Jul ? 02:51:16 10° WSW 02:53:21 14° W 02:55:28 10° WNW visible
15 Jul ? 01:08:23 10° SE 01:11:58 37° ENE 01:15:38 10° N visible
15 Jul ? 02:44:08 10° SW 02:46:42 17° W 02:49:16 10° NW visible
16 Jul ? 01:01:53 10° SE 01:05:23 31° ENE 01:08:54 10° N visible
16 Jul ? 02:37:17 11° SW 02:40:01 19° W 02:42:56 10° NW visible
17 Jul ? 00:55:28 10° SE 00:58:47 27° ENE 01:02:07 10° NNE visible
17 Jul ? 02:30:37 12° SW 02:33:20 23° W 02:36:31 10° NW visible
18 Jul ? 00:49:05 10° ESE 00:52:11 23° ENE 00:55:19 10° NNE visible
18 Jul ? 02:23:56 14° SSW 02:26:38 27° W 02:30:03 10° NW visible
19 Jul ? 02:17:14 15° SSW 02:19:56 32° W 02:23:31 10° NNW visible
20 Jul ? 02:10:31 16° SSW 02:13:13 39° W 02:16:55 10° NNW visible
21 Jul ? 02:03:47 18° SSW 02:06:29 46° W 02:10:18 10° NNW visible
